7 * 24
多渠道服务支持
STARLINK-34283是美国SpaceX公司于2025年6月5日发射的星链(Starlink)系列卫星,是星链星座组网建设的组成部分。星链项目由SpaceX主导,旨在构建全球卫星互联网星座,可在偏远地区提供高速宽带接入服务,已实现商业落地,并逐步向天基骨干网和手机直连方向拓展,STARLINK-34283的入轨进一步推进了星链星座的全球覆盖进程。
美国
(US)
| 数据来源 | 国际轨道数据 |
| 星历时间: | 2026-09-03T11:28:27+0800 1天前 查看轨道信息 |
| 半长轴: | 6840.854km |
| 偏心率: | 0.0001095 |
| 轨道倾角: | 53.158° |
| 近地点辐角 | 94.753° |
| 升交点赤经 | 291.176° |
| 平近点角 | 265.360° |
| 近地点: | 461.967km |
| 远地点: | 463.467km |
| 周期: | 93.848分钟 |
| 每日圈数: | 15.343954 |
| 事件ID | 空间交会对象 | 最接近时刻(TCA) | 交会距离 | 交会风险概率(CRP) | 交会风险指数(CRI) | 操作 |
|---|---|---|---|---|---|---|
| CDM_260905-134805-231206-421421 |
STARLINK-3752
(52312)
STARLINK-34283
(64214) | 2026-09-05T 13:48:13+0000 |
0.686 km
远距离 | 5.565448E-5 中风险 | 0.7 | |
| CDM_260904-164305-229706-421421 |
STARLINK-3758
(52297)
STARLINK-34283
(64214) | 2026-09-04T 16:43:09+0000 |
2.187 km
极远距离 | 1.582421E-6 低风险 | 0.39 | |
| CDM_260905-121405-231206-421421 |
STARLINK-3752
(52312)
STARLINK-34283
(64214) | 2026-09-05T 12:14:26+0000 |
2.362 km
极远距离 | 1.26677E-6 低风险 | 0.37 |